[[{"header":{"parameterUnit":"m.s-1","parameterCategory":1,"la1":30.2991,"la2":30.254,"lo1":-89.0895,"lo2":-89.0444,"dy":0.0017,"dx":0.0017,"nx":28,"ny":28,"refTime":"2024-09-03T21:00:00:Z","depth":0,"parameterNumber":2,"parameterNumberName":"U-component_of_WINDS"},"data":[0,0,0,0,0,0,0,0,0,0,0,0,0,0,0,0,0,0,0,0,0,0,0,0,0,0,0,0,0,0,0,0,0,0,0,0,0,0,0,0,0,0,0,0,0,0,0,0,0,0,0,0,0,0,0,0,0,0,-8.7981,-8.7979,0,-8.7814,-8.7812,-8.781,-8.7494,-8.7488,-8.7482,-8.7476,-8.7315,-8.7316,-8.7317,0,0,0,0,0,0,0,0,0,0,0,0,0,-8.8036,-8.8037,-8.7981,-8.7979,-8.7977,-8.7814,-8.7812,-8.781,-8.7495,-8.7488,-8.748,-8.7473,-8.7314,-8.7316,-8.7317,0,0,0,0,0,0,0,0,0,0,0,0,0,-8.7956,-8.8037,-8.7981,-8.78,-8.7782,-8.7815,-8.7812,-8.7809,-8.7497,-8.7488,-8.7479,-8.747,-8.7313,-8.7316,-8.7318,-8.7516,0,0,-8.7324,-8.7325,0,0,0,0,0,0,0,0,-8.7961,-8.7954,-8.7829,-8.7813,-8.7793,-8.7665,-8.7772,-8.7711,-8.7499,-8.7606,-8.7476,-8.7465,-8.7439,-8.7431,-8.742,-8.7508,-8.7501,-8.7324,-8.7326,-8.7327,-8.7327,0,0,0,0,0,0,0,-8.7967,-8.7959,-8.7915,-8.7828,-8.7806,-8.773,-8.7708,-8.7759,-8.7577,-8.7596,-8.7572,-8.7556,-8.7428,-8.7419,-8.7414,-8.7499,-8.7324,-8.7326,-8.7328,-8.7328,-8.774,-8.7749,0,0,0,0,0,0,-8.7997,-8.7966,-8.792,-8.791,-8.7855,-8.7737,-8.7712,-8.7716,-8.7575,-8.7545,-8.7565,-8.7542,-8.7419,-8.7412,-8.7407,-8.7626,-8.7327,-8.7329,-8.733,-8.773,-8.7742,-8.7752,0,0,0,0,0,0,-8.8,-8.7996,-8.7927,-8.7932,-8.7917,-8.7745,-8.7752,-8.7717,-8.7707,-8.7551,-8.7518,-8.7588,-8.7412,-8.7404,-8.749,-8.7616,-8.733,-8.7332,-8.7719,-8.7734,-8.7747,-8.8069,0,0,0,0,0,0,-8.8003,-8.7999,-8.807,-8.7935,-8.7918,-8.8011,-8.776,-8.7721,-8.7711,-8.768,-8.7564,-8.7537,-8.7404,-8.7488,-8.7492,-8.7614,-8.7333,-8.7706,-8.7725,-8.7742,-8.8047,-8.8093,-8.8133,0,0,0,0,0,-8.8006,-8.817,-8.8076,-8.8072,-8.8003,-8.8019,-8.8009,-8.785,-8.7723,-8.7793,-8.7693,-8.754,-8.7603,-8.75,-8.7501,-8.7626,-8.7698,-8.772,-8.7741,-8.8027,-8.8084,-8.8132,0,0,0,0,0,0,-8.8328,-8.8149,-8.8042,-8.8167,-8.8111,-8.7966,-8.805,-8.7916,-8.7896,-8.7869,-8.7676,-8.7653,-8.7764,-8.7704,-8.7592,-8.7809,-8.7626,-8.7649,-8.7843,-8.7896,-8.7938,-8.7948,-8.7335,0,0,0,0,0,-8.8413,-8.8438,-8.8282,-8.8408,-8.8384,-8.8224,-8.8225,-8.8107,-8.8042,-8.8017,-8.7923,-8.7868,-8.7873,-8.7882,-8.788,-8.8038,-8.8007,-8.8125,-8.8168,-8.8204,-8.8225,-8.8302,-8.8351,-8.7823,-8.7823,-8.7823,0,0,-8.859,-8.8496,-8.8523,-8.847,-8.8412,-8.8444,-8.8205,-8.825,-8.8272,-8.8024,-8.8097,-8.8028,-8.7954,-8.8076,-8.8125,-8.8029,-8.8365,-8.8232,-8.8262,-8.8262,-8.8329,-8.8379,-8.8424,-8.7838,-8.7835,-8.7833,0,0,-8.8926,-8.8859,-8.8954,-8.8901,-8.8815,-8.8707,-8.8731,-8.8606,-8.8549,-8.8619,-8.8433,-8.846,-8.8476,-8.8429,-8.8408,-8.873,-8.8587,-8.8736,-8.8959,-8.9036,-8.9077,-8.9113,-8.9225,-8.9267,-8.8758,-8.8759,-8.8759,0,-8.9157,-8.9194,-8.9022,-8.9076,-8.9058,-8.8834,-8.8929,-8.8888,-8.8808,-8.8802,-8.8695,-8.8709,-8.8644,-8.875,-8.8829,-8.8821,-8.8841,-8.8745,-8.9085,-8.9119,-8.915,-8.9254,-8.9297,-8.8777,-8.8775,-8.8773,-8.8771,0,-8.9481,-8.9511,-8.9599,-8.9523,-8.9516,-8.9592,-8.9432,-8.9447,-8.9332,-8.9236,-8.9311,-8.9225,-8.92,-8.9218,-8.9108,-8.931,-8.9252,-8.912,-8.893,-8.9222,-8.9316,-8.9354,-8.8803,-8.8796,-8.8791,-8.8786,0,0,-9.0011,-8.9839,-8.9874,-8.9836,-8.9726,-8.9746,-8.9815,-8.9786,-8.9801,-8.9756,-8.9806,-8.9826,-8.9701,-8.9678,-8.9561,-8.963,-8.9886,-8.9487,-8.9482,-8.956,-9.01,-9.0197,-9.0246,-8.9793,-8.98,-8.9805,-9.0104,0,-9.032,-9.042,-9.0267,-9.0403,-9.0427,-9.0217,-9.0275,-9.0216,-9.013,-9.014,-9.0046,-9.006,-8.9897,-8.9881,-8.994,-8.9842,-8.9991,-8.9819,-8.9837,-8.984,-8.9857,-9.0295,-9.0398,-9.0684,-9.0141,-9.0147,-9.0151,0,-9.0692,-9.066,-9.0798,-9.0678,-9.0683,-9.0738,-9.0699,-9.0713,-9.0642,-9.0574,-9.0549,-9.041,-9.0469,-9.029,-9.0369,-9.0256,-9.0255,-9.0209,-9.0216,-9.0207,-9.001,-9.0294,-9.0771,-9.0813,-9.0208,-9.0204,-9.02,0,-9.106,-9.1053,-9.1132,-9.1107,-9.0971,-9.1014,-9.096,-9.088,-9.0873,-9.0843,-9.0836,-9.0815,-9.0803,-9.079,-9.0649,-9.0533,-9.0745,-9.0555,-9.0689,-9.0693,-9.0739,-9.0737,-9.1218,-9.0749,-9.0748,-9.0747,-9.0746,0,-9.1417,-9.1509,-9.1295,-9.1344,-9.1441,-9.1267,-9.1369,-9.1294,-9.1225,-9.1257,-9.1077,-9.1112,-9.0925,-9.0941,-9.0832,-9.0912,-9.091,-9.0857,-9.0825,-9.0869,-9.0876,-9.0862,-9.0837,-9.0758,-9.0756,-9.0754,-9.0752,0,-9.1841,-9.1702,-9.1774,-9.164,-9.1608,-9.1685,-9.157,-9.1611,-9.1515,-9.1558,-9.1558,-9.1407,-9.1416,-9.1275,-9.1258,-9.1185,-9.1312,-9.1249,-9.1335,-9.1313,-9.1453,-9.144,-9.1938,-9.1993,-9.1495,-9.15,-9.1505,0,-9.2074,-9.2139,-9.2011,-9.2018,-9.1972,-9.1987,-9.1978,-9.1812,-9.1811,-9.1735,-9.1786,-9.178,-9.1764,-9.1789,-9.1679,-9.1665,-9.1596,-9.1772,-9.1593,-9.1634,-9.1593,-9.1588,-9.1593,-9.1808,-9.1815,-9.182,-9.1824,0,-9.2503,-9.2431,-9.2424,-9.2394,-9.2388,-9.2358,-9.2315,-9.2333,-9.2151,-9.216,-9.2164,-9.2154,-9.2134,-9.213,-9.2095,-9.2041,-9.1903,-9.1882,-9.1911,-9.1954,-9.1998,-9.1971,-9.1432,-9.187,-9.1865,-9.1862,-9.1859,-9.1858,-9.2835,-9.2881,-9.2798,-9.2796,-9.2747,-9.2712,-9.2742,-9.2649,-9.2649,-9.2618,-9.2522,-9.2544,-9.2472,-9.241,-9.2369,-9.2385,-9.2298,-9.2343,-9.2352,-9.2364,-9.2388,-9.2002,-9.2379,-9.2377,-9.2376,-9.2375,-9.2374,0,-9.3249,-9.3185,-9.3186,-9.313,-9.313,-9.3,-9.2947,-9.2956,-9.2975,-9.292,-9.2909,-9.2915,-9.291,-9.2801,-9.2783,-9.2817,-9.2753,-9.2817,-9.281,-9.2799,-9.2469,-9.2443,-9.2869,-9.2869,-9.2869,-9.2869,-9.2869,-9.2869,-9.3464,-9.3535,-9.3454,-9.35,-9.3436,-9.3453,-9.3433,-9.3401,-9.3354,-9.3368,-9.3362,-9.3291,-9.3214,-9.3189,-9.3179,-9.3147,-9.3147,-9.3233,-9.318,-9.2871,-9.2823,-9.2777,-9.2751,-9.3236,-9.3236,-9.3507,-9.351,-9.3512]},{"header":{"parameterUnit":"m.s-1","parameterCategory":1,"la1":30.2991,"la2":30.254,"lo1":-89.0895,"lo2":-89.0444,"dy":0.0017,"dx":0.0017,"nx":28,"ny":28,"refTime":"2024-09-03T21:00:00:Z","depth":0,"parameterNumber":3,"parameterNumberName":"V-component_of_WINDS"},"data":[0,0,0,0,0,0,0,0,0,0,0,0,0,0,0,0,0,0,0,0,0,0,0,0,0,0,0,0,0,0,0,0,0,0,0,0,0,0,0,0,0,0,0,0,0,0,0,0,0,0,0,0,0,0,0,0,0,0,-1.16,-1.1601,0,-1.1685,-1.1685,-1.1686,-1.1772,-1.1773,-1.1774,-1.1775,-1.1854,-1.1855,-1.1856,0,0,0,0,0,0,0,0,0,0,0,0,0,-1.1509,-1.151,-1.16,-1.1601,-1.1603,-1.1684,-1.1686,-1.1687,-1.1771,-1.1773,-1.1774,-1.1775,-1.1854,-1.1855,-1.1857,0,0,0,0,0,0,0,0,0,0,0,0,0,-1.1566,-1.1511,-1.16,-1.1655,-1.1661,-1.1684,-1.1686,-1.1687,-1.1771,-1.1773,-1.1775,-1.1776,-1.1854,-1.1855,-1.1857,-1.1831,0,0,-1.1861,-1.1862,0,0,0,0,0,0,0,0,-1.1563,-1.1569,-1.1646,-1.1651,-1.1658,-1.172,-1.1683,-1.1735,-1.1771,-1.1729,-1.1775,-1.1777,-1.1808,-1.1813,-1.1825,-1.1835,-1.1838,-1.1862,-1.1862,-1.1863,-1.1864,0,0,0,0,0,0,0,-1.1559,-1.1566,-1.1634,-1.1647,-1.1654,-1.1674,-1.1684,-1.1693,-1.1757,-1.1733,-1.1739,-1.1748,-1.1811,-1.1823,-1.1827,-1.1839,-1.1861,-1.1863,-1.1864,-1.1864,-1.1834,-1.1832,0,0,0,0,0,0,-1.1547,-1.1562,-1.1631,-1.1636,-1.1614,-1.1674,-1.1685,-1.1698,-1.1757,-1.1768,-1.1747,-1.1752,-1.182,-1.1825,-1.183,-1.1804,-1.1863,-1.1865,-1.1865,-1.1836,-1.1833,-1.1832,0,0,0,0,0,0,-1.1545,-1.1552,-1.1627,-1.1601,-1.1612,-1.1674,-1.1687,-1.1698,-1.171,-1.1768,-1.1779,-1.1747,-1.1821,-1.1828,-1.1831,-1.1808,-1.1865,-1.1867,-1.1838,-1.1835,-1.1832,-1.175,0,0,0,0,0,0,-1.1542,-1.1551,-1.1543,-1.16,-1.1613,-1.1627,-1.1686,-1.1699,-1.1714,-1.1721,-1.1772,-1.1781,-1.1823,-1.1828,-1.1832,-1.1811,-1.1868,-1.184,-1.1836,-1.1833,-1.1755,-1.1745,-1.1737,0,0,0,0,0,-1.1538,-1.1514,-1.1542,-1.1549,-1.1604,-1.1626,-1.1633,-1.1683,-1.1712,-1.1703,-1.174,-1.178,-1.1811,-1.1828,-1.1833,-1.1812,-1.1841,-1.1837,-1.1834,-1.176,-1.1747,-1.1737,0,0,0,0,0,0,-1.1448,-1.1523,-1.1554,-1.1548,-1.1581,-1.164,-1.163,-1.1669,-1.1691,-1.1697,-1.1757,-1.1768,-1.1763,-1.1789,-1.1806,-1.1791,-1.1832,-1.1829,-1.1774,-1.1762,-1.1753,-1.1745,-1.1869,0,0,0,0,0,-1.1429,-1.1442,-1.1506,-1.1495,-1.151,-1.1567,-1.1579,-1.1615,-1.165,-1.1663,-1.1701,-1.1731,-1.1748,-1.1758,-1.1776,-1.1762,-1.1773,-1.175,-1.174,-1.1733,-1.1728,-1.1721,-1.1711,-1.1819,-1.1819,-1.1819,0,0,-1.1386,-1.1429,-1.1433,-1.1478,-1.1507,-1.1518,-1.1578,-1.1586,-1.1594,-1.1664,-1.1668,-1.1698,-1.1736,-1.173,-1.1729,-1.1751,-1.1702,-1.1728,-1.1721,-1.172,-1.1716,-1.1706,-1.1697,-1.1816,-1.1817,-1.1817,0,0,-1.1314,-1.1349,-1.1344,-1.1373,-1.1418,-1.1458,-1.1456,-1.1512,-1.1534,-1.1541,-1.1594,-1.1604,-1.1632,-1.1657,-1.1673,-1.1616,-1.1653,-1.1621,-1.157,-1.1563,-1.1555,-1.1548,-1.1525,-1.1516,-1.1617,-1.1617,-1.1617,0,-1.1255,-1.1275,-1.1335,-1.1341,-1.1359,-1.1427,-1.1421,-1.1446,-1.1494,-1.1504,-1.1529,-1.1567,-1.1597,-1.1598,-1.1584,-1.1596,-1.1595,-1.1613,-1.1552,-1.1545,-1.1539,-1.1518,-1.151,-1.1612,-1.1613,-1.1613,-1.1614,0,-1.1199,-1.1213,-1.1203,-1.125,-1.1268,-1.1267,-1.1326,-1.1337,-1.1374,-1.141,-1.1416,-1.1457,-1.1485,-1.1489,-1.1523,-1.1495,-1.1507,-1.1541,-1.1582,-1.1523,-1.1504,-1.1497,-1.1606,-1.1608,-1.1609,-1.161,0,0,-1.1066,-1.1152,-1.1146,-1.1169,-1.1227,-1.1237,-1.1241,-1.1272,-1.1278,-1.1311,-1.1314,-1.1338,-1.1371,-1.139,-1.1429,-1.1424,-1.1374,-1.1459,-1.1461,-1.1439,-1.1343,-1.1313,-1.1303,-1.1401,-1.14,-1.1399,-1.1338,0,-1.1001,-1.1013,-1.107,-1.1064,-1.1077,-1.1145,-1.1148,-1.1183,-1.1218,-1.1233,-1.1272,-1.1287,-1.1331,-1.1343,-1.1341,-1.138,-1.1354,-1.1386,-1.1401,-1.1401,-1.1385,-1.1293,-1.1262,-1.1202,-1.1332,-1.1331,-1.133,0,-1.0924,-1.0955,-1.0952,-1.1012,-1.1019,-1.1021,-1.1054,-1.1069,-1.111,-1.1137,-1.116,-1.1205,-1.1212,-1.1255,-1.1264,-1.1284,-1.1294,-1.1315,-1.1314,-1.1313,-1.1358,-1.1286,-1.1185,-1.1174,-1.1319,-1.132,-1.1321,0,-1.0824,-1.0865,-1.0869,-1.0887,-1.0957,-1.0957,-1.0986,-1.1029,-1.1045,-1.1074,-1.1085,-1.1114,-1.1128,-1.115,-1.1201,-1.1228,-1.1204,-1.1251,-1.1223,-1.1221,-1.121,-1.1209,-1.1104,-1.1224,-1.1224,-1.1224,-1.1225,0,-1.0742,-1.0736,-1.0825,-1.0826,-1.0823,-1.0889,-1.0883,-1.0918,-1.0957,-1.0965,-1.1027,-1.1033,-1.1103,-1.1117,-1.1158,-1.1158,-1.1166,-1.1185,-1.1195,-1.1177,-1.1174,-1.1181,-1.1184,-1.1222,-1.1223,-1.1223,-1.1224,0,-1.0626,-1.0686,-1.0694,-1.0762,-1.0779,-1.0773,-1.083,-1.0834,-1.0876,-1.0886,-1.0892,-1.0957,-1.0977,-1.1033,-1.1066,-1.1094,-1.1081,-1.1103,-1.1067,-1.1072,-1.104,-1.1041,-1.0932,-1.0921,-1.1051,-1.105,-1.1049,0,-1.0567,-1.0565,-1.0635,-1.0647,-1.0674,-1.0692,-1.0709,-1.0776,-1.0791,-1.0841,-1.0838,-1.0864,-1.0888,-1.0917,-1.0965,-1.0992,-1.1012,-1.0973,-1.1015,-1.0998,-1.1007,-1.1004,-1.1003,-1.0961,-1.0959,-1.0957,-1.0956,0,-1.0455,-1.0487,-1.0511,-1.0546,-1.0566,-1.0596,-1.063,-1.0635,-1.071,-1.0724,-1.0747,-1.0766,-1.0804,-1.0827,-1.0863,-1.0891,-1.0934,-1.0944,-1.0938,-1.0916,-1.0894,-1.0903,-1.1036,-1.0944,-1.0945,-1.0946,-1.0947,-1.0947,-1.0364,-1.0365,-1.0415,-1.0441,-1.0475,-1.0505,-1.0512,-1.0558,-1.0579,-1.0616,-1.0655,-1.0673,-1.0717,-1.0769,-1.0795,-1.0809,-1.0832,-1.0825,-1.0822,-1.0818,-1.0808,-1.0897,-1.0817,-1.0817,-1.0817,-1.0818,-1.0818,0,-1.0251,-1.0289,-1.0312,-1.0359,-1.0379,-1.0426,-1.0466,-1.0479,-1.0495,-1.0534,-1.0558,-1.0585,-1.061,-1.0663,-1.0693,-1.0694,-1.0715,-1.0699,-1.0697,-1.0702,-1.0788,-1.0788,-1.0682,-1.0682,-1.0682,-1.0682,-1.0682,-1.0682,-1.0195,-1.02,-1.0238,-1.0261,-1.0298,-1.0319,-1.0338,-1.0367,-1.0398,-1.0427,-1.0449,-1.0485,-1.053,-1.0564,-1.0588,-1.0604,-1.0609,-1.0586,-1.0607,-1.0684,-1.0696,-1.0708,-1.0709,-1.0588,-1.0588,-1.052,-1.0519,-1.0519]}]]